Location: Newark
(40.7360°N, 74.1730°W)
Time: 12:10:12
(UTC-04:00)

Amateur Radio Satellites - All Passes

Search period start: 05 May 2016 11:40
Search period end: 06 May 2016 11:40
Location: Newark, 40.7360°N, 74.1730°W

Satellite Date Start Highest point End Downlink Frequencies (MHz)
Time Altitude Azimuth
ANTELSAT 05 May 11:42:16 11:45:23 18° 267° (W) 11:48:30 437.575/2403.000
NANOSAT C BR1 05 May 11:42:59 11:47:15 82° 257° (WSW) 11:51:33 145.865
JAS-2 05 May 11:47:36 11:52:08 21° 58° (ENE) 11:57:03 435.910
PHONESAT 2.4 05 May 11:50:52 11:54:01 86° 187° (S) 11:57:11 2401.200-2431.200
DX 1 05 May 11:52:09 11:55:30 21° 94° (E) 11:58:49 434.975-435.025
UKube-1 05 May 11:53:42 11:56:38 18° 93° (E) 11:59:34 .
ISS 05 May 12:02:12 12:05:03 27° 25° (NNE) 12:07:54 145.825
VELOX 1 05 May 12:04:29 12:08:33 33° 97° (E) 12:12:34 145.980
HUMSAT D 05 May 12:16:40 12:19:49 22° 292° (WNW) 12:22:58 437.325/437.525
SPROUT 05 May 12:18:20 12:21:12 17° 93° (E) 12:24:03 437.525
Oscar 19 05 May 12:24:07 12:27:52 21° 63° (ENE) 12:31:37 437.125/150
AO-85 05 May 12:25:06 12:30:34 84° 120° (ESE) 12:36:00 145.980
DUCHIFAT 1 05 May 12:35:07 12:38:31 23° 265° (W) 12:41:56 145.980
AISAT 05 May 12:36:43 12:41:13 80° 104° (ESE) 12:45:39 437.250
QB50P2 05 May 12:40:04 12:43:02 18° 267° (W) 12:45:59 145.880/145.840
POLYITAN 1 05 May 12:42:19 12:45:14 18° 267° (W) 12:48:09 437.675
Gurwin Techsat 1B 05 May 12:43:01 12:45:22 13° 59° (ENE) 12:47:44 435.225
AIST 1 05 May 12:43:51 12:46:44 17° 274° (W) 12:49:36
POPSAT HIP 1 05 May 12:44:10 12:47:03 17° 267° (W) 12:49:56 437.405
QB50P1 05 May 12:47:23 12:50:02 16° 268° (W) 12:52:41 145.935-145.965
50 SAT 05 May 13:00:16 13:03:42 39° 287° (WNW) 13:07:07 437.505
BUGSAT 1 05 May 13:05:05 13:08:23 22° 266° (W) 13:11:43 437.445
CUBEBUG 1 05 May 13:05:38 13:09:57 52° 287° (WNW) 13:14:14 437.445
ESTCUBE 1 05 May 13:07:14 13:11:24 37° 290° (WNW) 13:15:34 437.505/2401.250
DX 1 05 May 13:27:46 13:31:45 34° 290° (WNW) 13:35:42 434.975-435.025
PHONESAT 2.4 05 May 13:27:48 13:30:45 38° 200° (SSW) 13:33:41 2401.200-2431.200
UKube-1 05 May 13:28:46 13:32:50 40° 289° (WNW) 13:36:53 .
JAS-2 05 May 13:30:20 13:36:20 70° 259° (WSW) 13:43:14 435.910
Cosmos 2499 05 May 13:33:02 13:40:13 41° 272° (W) 13:47:54 435.465 / 435.565
GONETS M04 05 May 13:33:24 13:40:04 25° 279° (W) 13:46:43
ISS 05 May 13:38:29 13:41:36 41° 223° (SW) 13:44:41 145.825
VELOX 1 05 May 13:41:18 13:44:50 23° 293° (WNW) 13:48:21 145.980
O/OREOS (USA 219) 05 May 13:42:25 13:45:57 22° 102° (ESE) 13:49:28 437.305
ITAMSAT 1 05 May 13:48:49 13:52:41 22° 64° (ENE) 13:56:34 435.822/435.867
SPROUT 05 May 13:53:18 13:57:19 39° 289° (WNW) 14:01:17 437.525
SO-50 05 May 13:56:48 13:59:17 14° 37° (NE) 14:01:43 436.795
ITUPSAT 1 05 May 13:59:34 14:01:20 12° 90° (E) 14:03:07 437.325
Oscar 19 05 May 14:01:46 14:06:47 51° 260° (W) 14:11:51 437.125/150
SWISSCUBE 05 May 14:06:21 14:09:21 16° 92° (E) 14:12:20 437.505
AO-85 05 May 14:07:52 14:11:43 19° 319° (NW) 14:15:31 145.980
AO-7 05 May 14:08:25 14:14:46 25° 54° (NE) 14:21:06 29.400- 29.500
PCSat 05 May 14:15:34 14:19:31 21° 106° (ESE) 14:23:28 145.827
AISAT 05 May 14:15:58 14:17:01 11° 299° (WNW) 14:18:03 437.250
TISAT 1 05 May 14:16:15 14:20:29 76° 284° (WNW) 14:24:40 437.305
Gurwin Techsat 1B 05 May 14:19:14 14:24:33 86° 256° (WSW) 14:29:55 435.225
CUSAT 1 05 May 14:31:08 14:34:15 26° 86° (E) 14:38:08 437.405
BEESAT 05 May 14:38:13 14:42:28 31° 97° (E) 14:46:41 436.000
O/OREOS (USA 219) 05 May 15:20:52 15:25:06 36° 298° (WNW) 15:29:22 437.305
ITAMSAT 1 05 May 15:26:51 15:31:49 47° 260° (W) 15:36:49 435.822/435.867
ITUPSAT 1 05 May 15:34:53 15:39:39 70° 286° (WNW) 15:44:24 437.325
SO-50 05 May 15:35:49 15:40:34 82° 56° (NE) 15:45:08 436.795
DANDE 05 May 15:40:39 15:43:35 58° 95° (E) 15:47:21 436.750
SWISSCUBE 05 May 15:42:48 15:47:26 51° 288° (WNW) 15:52:02 437.505
KKS-1 05 May 15:55:18 15:58:58 25° 95° (E) 16:02:37 437.445
PCSat 05 May 15:57:10 16:02:28 54° 303° (WNW) 16:07:49 145.827
AO-7 05 May 15:58:25 16:06:42 78° 253° (WSW) 16:15:03 29.400- 29.500
STARS 05 May 16:04:34 16:07:16 16° 92° (E) 16:09:55 437.465
CUSAT 1 05 May 16:13:23 16:16:25 21° 295° (WNW) 16:20:06 437.405
BEESAT 05 May 16:16:08 16:20:08 27° 293° (WNW) 16:24:07 436.000
MOZHAYETS 4 05 May 16:19:50 16:23:53 30° 96° (E) 16:27:55
HORYU 2 05 May 16:19:50 16:24:01 41° 71° (ENE) 16:28:13 437.375
Cosmos 2491 05 May 16:45:07 16:52:35 30° 68° (ENE) 16:59:57 435.465 / 435.565
YUBILEINY 05 May 17:00:50 17:03:59 12° 74° (ENE) 17:07:07 435.215
CUTE-I 05 May 17:18:29 17:22:27 22° 64° (ENE) 17:26:27 437.470
SO-50 05 May 17:19:24 17:20:16 10° 254° (WSW) 17:21:09 436.795
KKS-1 05 May 17:31:37 17:35:31 30° 291° (WNW) 17:39:24 437.445
BEESAT 3 05 May 17:32:25 17:36:02 36° 116° (ESE) 17:39:42 437.485
STARS 05 May 17:39:38 17:43:51 46° 288° (WNW) 17:48:02 437.465
PCSat 05 May 17:45:53 17:47:09 11° 324° (NW) 17:48:24 145.827
BEESAT 2 05 May 17:45:54 17:49:22 29° 114° (ESE) 17:52:51 435.950
BRITE-PL 05 May 17:47:42 17:52:10 35° 68° (ENE) 17:56:58 437.365/2234.400
NOAA 15 05 May 17:49:15 17:54:25 61° 72° (ENE) 17:59:39 137.62
LilacSat-2 05 May 17:54:47 17:58:16 32° 72° (ENE) 18:01:46 437.200
NOAA 18 05 May 17:55:38 18:01:04 64° 72° (ENE) 18:06:31 137.9125
AO-7 05 May 17:56:48 18:00:42 14° 272° (W) 18:04:37 29.400- 29.500
MOZHAYETS 4 05 May 17:57:09 18:00:56 26° 292° (WNW) 18:04:41
HORYU 2 05 May 17:57:40 18:00:45 18° 267° (W) 18:03:49 437.375
Cubesat XI-IV 05 May 18:02:25 18:07:35 53° 72° (ENE) 18:12:46 437.490
CUBESAT XI-V 05 May 18:12:54 18:17:31 54° 100° (E) 18:22:08 437.345
M-CUBED/EXP-1 PRIME 05 May 18:22:22 18:26:42 38° 66° (ENE) 18:30:58 437.505
DOVE 4 05 May 18:24:43 18:28:37 22° 65° (ENE) 18:32:36 437.250
AUBIESAT-1 05 May 18:38:11 18:42:36 45° 67° (ENE) 18:46:55 437.475
Cosmos 2491 05 May 18:41:20 18:49:57 61° 269° (W) 18:58:30 435.465 / 435.565
GOMX 1 05 May 18:42:55 18:47:55 60° 73° (ENE) 18:53:14 467.674
CINEMA 3 05 May 18:47:44 18:49:27 12° 61° (ENE) 18:51:11 145.822/145.860
YUBILEINY 05 May 18:50:26 18:59:06 72° 93° (E) 19:07:46 435.215
CUTE-I 05 May 18:57:01 19:02:09 49° 260° (W) 19:07:18 437.470
HO-68 05 May 18:58:28 19:04:18 28° 60° (ENE) 19:10:09 435.675
STRAND 1 05 May 19:09:27 19:12:55 18° 92° (E) 19:16:22 437.568
BEESAT 3 05 May 19:10:48 19:13:52 21° 313° (NW) 19:16:56 437.485
AO-85 05 May 19:19:26 19:21:14 12° 33° (NNE) 19:23:00 145.980
BEESAT 2 05 May 19:23:52 19:27:12 25° 312° (NW) 19:30:34 435.950
CANX-2 05 May 19:25:57 19:29:22 24° 69° (ENE) 19:32:47 2200.000
BRITE-PL 05 May 19:26:31 19:30:41 27° 267° (W) 19:35:08 437.365/2234.400
LilacSat-2 05 May 19:30:04 19:32:39 17° 267° (W) 19:35:15 437.200
NOAA 15 05 May 19:31:23 19:34:36 16° 269° (W) 19:37:51 137.62
NOAA 18 05 May 19:38:42 19:42:09 17° 268° (W) 19:45:36 137.9125
AIST 2 05 May 19:43:04 19:46:52 37° 116° (ESE) 19:50:42 435.215
Cubesat XI-IV 05 May 19:44:15 19:47:58 19° 268° (W) 19:51:42 437.490
CUBESAT XI-V 05 May 19:51:33 19:54:28 16° 296° (WNW) 19:57:22 437.345
CUTE 1.7 + AOD 2 05 May 19:57:23 20:01:25 47° 74° (ENE) 20:05:29 437.475
M-CUBED/EXP-1 PRIME 05 May 19:57:29 20:01:16 24° 260° (W) 20:05:01 437.505
RS-15 05 May 19:57:34 20:06:13 27° 101° (E) 20:15:09 29.354- 29.394
DOVE 4 05 May 20:00:56 20:05:54 49° 262° (W) 20:11:03 437.250
AUBIESAT-1 05 May 20:13:53 20:17:11 19° 261° (W) 20:20:28 437.475
FUNcube-1 05 May 20:14:56 20:16:37 12° 63° (ENE) 20:18:17 145.935
COMPASS 1 05 May 20:16:25 20:20:16 40° 72° (ENE) 20:24:09 437.405
SEEDS 05 May 20:18:44 20:22:50 61° 75° (ENE) 20:26:57 437.485
Cosmos 2504 05 May 20:20:22 20:27:33 70° 94° (E) 20:34:40 435.465 / 435.565
CINEMA 3 05 May 20:20:48 20:25:50 89° 257° (WSW) 20:30:52 145.822/145.860
GOMX 1 05 May 20:23:13 20:26:27 17° 271° (W) 20:29:48 467.674
UWE-3 05 May 20:33:03 20:37:01 29° 70° (ENE) 20:40:56 435.000/436.395/437.385
AAUSAT CUBESAT 2 05 May 20:43:47 20:47:51 68° 76° (ENE) 20:51:57 437.432
HO-68 05 May 20:44:32 20:51:34 58° 258° (WSW) 20:58:38 435.675
CUBEBUG 2 05 May 20:46:39 20:51:17 58° 74° (ENE) 20:55:51 437.445
STRAND 1 05 May 20:47:25 20:52:23 52° 288° (WNW) 20:57:20 437.568
YUBILEINY 05 May 20:49:57 20:56:42 25° 294° (WNW) 21:03:31 435.215
ZACube-1 05 May 20:56:15 21:00:19 34° 71° (ENE) 21:04:19 437.345
AO-85 05 May 20:58:02 21:02:49 64° 55° (NE) 21:07:07 145.980
CANX-2 05 May 21:01:31 21:05:07 27° 264° (W) 21:08:43 2200.000
AIST 2 05 May 21:22:10 21:25:28 22° 313° (NW) 21:28:47 435.215
PRISM 05 May 21:23:55 21:28:07 89° 97° (E) 21:32:18 437.425
DELFI C3 05 May 21:30:57 21:34:40 42° 73° (ENE) 21:38:24 145.870
Oscar 11 05 May 21:31:36 21:35:54 86° 253° (WSW) 21:40:14 145.826/435.025
HUMSAT D 05 May 21:32:12 21:35:19 21° 68° (ENE) 21:38:25 437.325/437.525
CUTE 1.7 + AOD 2 05 May 21:35:21 21:37:32 14° 269° (W) 21:39:43 437.475
FUNcube-1 05 May 21:47:49 21:52:18 70° 258° (WSW) 21:56:43 145.935
COMPASS 1 05 May 21:53:29 21:56:01 16° 268° (W) 21:58:33 437.405
SEEDS 05 May 21:58:07 21:58:56 10° 270° (W) 21:59:45 437.485
RS-15 05 May 22:05:51 22:17:10 82° 303° (WNW) 22:29:12 29.354- 29.394
UWE-3 05 May 22:09:30 22:13:25 27° 265° (W) 22:17:18 435.000/436.395/437.385
Cosmos 2504 05 May 22:16:36 22:21:37 20° 294° (WNW) 22:26:40 435.465 / 435.565
CUBEBUG 2 05 May 22:25:41 22:28:12 14° 269° (W) 22:30:43 437.445
CUBEBUG 1 05 May 22:27:39 22:29:28 12° 62° (ENE) 22:31:17 437.445
ESTCUBE 1 05 May 22:30:45 22:33:56 19° 65° (ENE) 22:37:07 437.505/2401.250
ZACube-1 05 May 22:33:08 22:36:38 22° 266° (W) 22:40:06 437.345
AO-85 05 May 22:40:29 22:42:33 13° 254° (WSW) 22:44:34 145.980
GONETS M04 05 May 22:44:45 22:48:53 14° 75° (ENE) 22:53:00
DX 1 05 May 22:47:48 22:50:50 19° 65° (ENE) 22:53:53 434.975-435.025
UKube-1 05 May 22:48:36 22:51:09 16° 64° (ENE) 22:53:43 .
UNISAT 6 05 May 22:50:42 22:54:37 33° 97° (E) 22:58:28 437.425
VELOX 1 05 May 23:01:37 23:05:25 29° 68° (ENE) 23:09:15 145.980
PCSat 05 May 23:02:47 23:06:39 19° 44° (NE) 23:10:31 145.827
TIGRISAT 05 May 23:06:52 23:11:02 48° 99° (E) 23:15:09 435.000
HUMSAT D 05 May 23:06:57 23:10:44 32° 263° (W) 23:14:32 437.325/437.525
DELFI C3 05 May 23:07:43 23:09:45 14° 268° (W) 23:11:47 145.870
SPROUT 05 May 23:12:31 23:14:47 14° 64° (ENE) 23:17:03 437.525
NANOSAT C BR1 05 May 23:28:59 23:31:36 16° 92° (E) 23:34:10 145.865
ANTELSAT 05 May 23:32:33 23:36:52 81° 286° (WNW) 23:41:07 437.575/2403.000
AISAT 05 May 23:33:29 23:37:53 67° 75° (ENE) 23:42:21 437.250
AIST 1 05 May 23:34:50 23:38:15 23° 88° (E) 23:41:42
50 SAT 05 May 23:38:04 23:41:43 85° 77° (ENE) 23:45:22 437.505
O/OREOS (USA 219) 05 May 23:51:41 23:55:57 40° 62° (ENE) 00:00:10 437.305
CUBEBUG 1 06 May 00:00:50 00:05:11 66° 258° (WSW) 00:09:36 437.445
ESTCUBE 1 06 May 00:06:14 00:10:26 40° 262° (W) 00:14:42 437.505/2401.250
Cosmos 2499 06 May 00:17:51 00:23:43 29° 85° (E) 00:29:38 435.465 / 435.565
DUCHIFAT 1 06 May 00:18:32 00:22:42 55° 101° (E) 00:26:47 145.980
RS-15 06 May 00:21:53 00:31:47 31° 331° (NNW) 00:42:07 29.354- 29.394
UKube-1 06 May 00:22:36 00:26:48 49° 260° (W) 00:31:01 .
DX 1 06 May 00:22:37 00:26:43 40° 261° (W) 00:30:52 434.975-435.025
QB50P2 06 May 00:23:40 00:27:55 75° 102° (ESE) 00:32:08 145.880/145.840
POLYITAN 1 06 May 00:25:53 00:30:08 77° 104° (ESE) 00:34:19 437.675
POPSAT HIP 1 06 May 00:27:32 00:31:48 78° 102° (ESE) 00:36:00 437.405
UNISAT 6 06 May 00:27:55 00:31:07 21° 293° (WNW) 00:34:18 437.425
QB50P1 06 May 00:30:26 00:34:41 85° 103° (ESE) 00:38:54 145.935-145.965
GONETS M04 06 May 00:35:18 00:44:08 78° 94° (E) 00:52:58
DANDE 06 May 00:36:25 00:38:27 11° 62° (ENE) 00:40:34 436.750
VELOX 1 06 May 00:38:08 00:41:50 26° 264° (W) 00:45:34 145.980
JAS-2 06 May 00:40:27 00:46:17 22° 89° (E) 00:51:59 435.910
TIGRISAT 06 May 00:44:51 00:47:19 15° 296° (WNW) 00:49:46 435.000
PCSat 06 May 00:45:12 00:50:37 73° 244° (WSW) 00:56:00 145.827
SPROUT 06 May 00:46:03 00:50:17 54° 260° (W) 00:54:32 437.525
BUGSAT 1 06 May 00:46:11 00:50:17 54° 100° (E) 00:54:19 437.445
CUSAT 1 06 May 01:02:13 01:09:02 36° 72° (ENE) 01:16:17 437.405
NANOSAT C BR1 06 May 01:03:32 01:07:31 41° 288° (WNW) 01:11:28 145.865
ITUPSAT 1 06 May 01:05:58 01:08:37 15° 62° (ENE) 01:11:15 437.325
TISAT 1 06 May 01:07:10 01:11:24 75° 76° (ENE) 01:15:41 437.305
AIST 1 06 May 01:11:59 01:15:42 28° 285° (WNW) 01:19:28
SWISSCUBE 06 May 01:12:40 01:16:02 19° 64° (ENE) 01:19:23 437.505
AISAT 06 May 01:13:34 01:14:49 11° 270° (W) 01:16:03 437.250
O/OREOS (USA 219) 06 May 01:31:53 01:35:02 19° 259° (W) 01:38:09 437.305
BEESAT 06 May 01:44:18 01:48:37 35° 69° (ENE) 01:52:56 436.000
BEESAT 3 06 May 01:50:10 01:53:19 22° 47° (NE) 01:56:26 437.485
DUCHIFAT 1 06 May 01:55:54 01:57:54 13° 297° (WNW) 01:59:53 145.980
QB50P2 06 May 02:02:43 02:03:06 10° 299° (WNW) 02:03:29 145.880/145.840
BEESAT 2 06 May 02:04:20 02:07:16 19° 46° (NE) 02:10:12 435.950
Cosmos 2499 06 May 02:09:46 02:16:28 46° 284° (WNW) 02:23:18 435.465 / 435.565
Oscar 19 06 May 02:13:23 02:18:32 58° 101° (E) 02:23:38 437.125/150
DANDE 06 May 02:15:22 02:22:16 60° 78° (ENE) 02:30:25 436.750
BUGSAT 1 06 May 02:23:10 02:25:10 13° 297° (WNW) 02:27:10 437.445
JAS-2 06 May 02:24:03 02:31:54 77° 287° (WNW) 02:39:37 435.910
GONETS M04 06 May 02:35:17 02:41:54 23° 295° (WNW) 02:48:34
Gurwin Techsat 1B 06 May 02:35:56 02:40:54 38° 98° (E) 02:45:49 435.225
RS-15 06 May 02:41:01 02:49:46 22° 7° (N) 02:58:42 29.354- 29.394
ITUPSAT 1 06 May 02:41:14 02:45:55 62° 258° (WSW) 02:50:40 437.325
CUSAT 1 06 May 02:44:03 02:51:19 52° 267° (W) 02:59:03 437.405
SWISSCUBE 06 May 02:48:56 02:53:29 45° 260° (W) 02:58:03 437.505
KKS-1 06 May 02:53:14 02:56:45 23° 67° (ENE) 03:00:17 437.445
STARS 06 May 03:01:28 03:03:58 15° 63° (ENE) 03:06:29 437.465
MOZHAYETS 4 06 May 03:21:32 03:25:26 28° 69° (ENE) 03:29:20
BEESAT 06 May 03:22:39 03:26:27 24° 265° (W) 03:30:16 436.000
BEESAT 3 06 May 03:27:30 03:31:06 34° 245° (WSW) 03:34:40 437.485
ITAMSAT 1 06 May 03:39:36 03:44:46 62° 102° (ESE) 03:49:54 435.822/435.867
BEESAT 2 06 May 03:41:32 03:45:19 42° 243° (WSW) 03:49:04 435.950
Oscar 19 06 May 03:53:54 03:57:23 18° 298° (WNW) 04:00:50 437.125/150
DANDE 06 May 03:58:56 04:04:51 29° 271° (W) 04:11:32 436.750
AO-7 06 May 04:00:37 04:08:11 37° 98° (E) 04:15:43 29.400- 29.500
AIST 2 06 May 04:04:42 04:08:10 25° 48° (NE) 04:11:36 435.215
JAS-2 06 May 04:10:58 04:15:40 18° 305° (NW) 04:20:24 435.910
Gurwin Techsat 1B 06 May 04:16:15 04:20:39 27° 294° (WNW) 04:25:03 435.225
KKS-1 06 May 04:29:04 04:33:08 33° 263° (W) 04:37:13 437.445
STARS 06 May 04:35:32 04:39:53 54° 260° (W) 04:44:15 437.465
RS-15 06 May 04:55:32 05:06:56 42° 40° (NE) 05:18:23 29.354- 29.394
MOZHAYETS 4 06 May 04:58:40 05:02:32 27° 265° (W) 05:06:26
YUBILEINY 06 May 05:01:17 05:09:04 35° 71° (ENE) 05:16:50 435.215
CUBESAT XI-V 06 May 05:15:47 05:20:13 50° 73° (ENE) 05:24:42 437.345
ITAMSAT 1 06 May 05:20:26 05:23:43 17° 298° (WNW) 05:27:01 435.822/435.867
AIST 2 06 May 05:42:58 05:46:41 33° 245° (WSW) 05:50:23 435.215
Cosmos 2491 06 May 05:46:16 05:53:51 34° 84° (E) 06:01:27 435.465 / 435.565
HORYU 2 06 May 05:47:05 05:51:32 86° 103° (ESE) 05:55:56 437.375
SO-50 06 May 05:49:47 05:54:00 29° 113° (ESE) 05:58:14 436.795
AO-7 06 May 05:53:09 06:01:06 51° 296° (WNW) 06:09:02 29.400- 29.500
BRITE-PL 06 May 05:54:07 05:56:58 14° 87° (E) 05:59:46 437.365/2234.400
NOAA 15 06 May 06:05:19 06:09:32 23° 94° (E) 06:13:42 137.62
Cosmos 2504 06 May 06:12:31 06:18:37 25° 69° (ENE) 06:25:02 435.465 / 435.565
ISS 06 May 06:17:33 06:20:46 67° 141° (SE) 06:24:01 145.825
NOAA 18 06 May 06:18:30 06:23:03 27° 96° (E) 06:27:35 137.9125
Cubesat XI-IV 06 May 06:20:38 06:24:40 21° 93° (E) 06:28:40 437.490
STRAND 1 06 May 06:24:55 06:29:05 26° 66° (ENE) 06:33:16 437.568
GOMX 1 06 May 06:46:14 06:50:09 20° 90° (E) 06:53:56 467.674
CUBESAT XI-V 06 May 06:55:06 06:57:53 16° 269° (W) 07:00:40 437.345
YUBILEINY 06 May 06:57:49 07:06:06 51° 271° (W) 07:14:24 435.215
LilacSat-2 06 May 07:02:19 07:06:02 50° 100° (E) 07:09:40 437.200
RS-15 06 May 07:08:12 07:20:25 71° 244° (WSW) 07:32:33 29.354- 29.394
CUTE-I 06 May 07:14:01 07:19:20 68° 102° (ESE) 07:24:39 437.470
SO-50 06 May 07:29:50 07:34:23 37° 310° (NW) 07:38:57 436.795
BRITE-PL 06 May 07:30:19 07:36:03 79° 284° (WNW) 07:41:34 437.365/2234.400
M-CUBED/EXP-1 PRIME 06 May 07:37:34 07:40:35 22° 99° (E) 07:43:25 437.505
PHONESAT 2.4 06 May 07:39:04 07:40:16 12° 147° (SSE) 07:41:27 2401.200-2431.200
Cosmos 2491 06 May 07:41:42 07:50:16 53° 284° (WNW) 07:58:54 435.465 / 435.565
NOAA 15 06 May 07:44:26 07:49:28 44° 290° (WNW) 07:54:28 137.62
AO-7 06 May 07:49:35 07:51:54 11° 318° (NW) 07:54:15 29.400- 29.500
AUBIESAT-1 06 May 07:52:43 07:55:57 27° 101° (E) 07:58:59 437.475
ISS 06 May 07:54:53 07:57:29 21° 339° (NNW) 08:00:06 145.825
NOAA 18 06 May 07:58:45 08:03:48 40° 292° (WNW) 08:08:50 137.9125
Cubesat XI-IV 06 May 07:59:51 08:04:57 47° 290° (WNW) 08:10:01 437.490
DOVE 4 06 May 08:00:30 08:05:26 51° 98° (E) 08:10:03 437.250
STRAND 1 06 May 08:03:23 08:08:04 37° 262° (W) 08:12:47 437.568
Cosmos 2504 06 May 08:04:53 08:12:30 66° 267° (W) 08:20:40 435.465 / 435.565
SEEDS 06 May 08:05:56 08:06:24 10° 90° (E) 08:06:53 437.485
PRISM 06 May 08:12:52 08:16:53 60° 73° (ENE) 08:20:56 437.425
HO-68 06 May 08:12:57 08:18:57 28° 95° (E) 08:24:55 435.675
CINEMA 3 06 May 08:17:08 08:20:38 22° 93° (E) 08:24:00 145.822/145.860
GOMX 1 06 May 08:23:19 08:28:32 50° 288° (WNW) 08:33:28 467.674
AAUSAT CUBESAT 2 06 May 08:28:55 08:29:53 11° 90° (E) 08:30:50 437.432
LilacSat-2 06 May 08:38:33 08:39:53 12° 295° (WNW) 08:41:11 437.200
CUBEBUG 2 06 May 08:40:35 08:41:44 11° 89° (E) 08:42:52 437.445
CANX-2 06 May 08:46:00 08:50:07 49° 99° (E) 08:54:13 2200.000
CUTE-I 06 May 08:55:35 08:58:48 16° 299° (WNW) 09:02:02 437.470
BRITE-PL 06 May 09:11:26 09:13:32 12° 302° (WNW) 09:15:37 437.365/2234.400
M-CUBED/EXP-1 PRIME 06 May 09:12:02 09:15:06 23° 298° (WNW) 09:17:59 437.505
PHONESAT 2.4 06 May 09:13:36 09:16:37 45° 162° (SSE) 09:19:39 2401.200-2431.200
CUTE 1.7 + AOD 2 06 May 09:18:00 09:22:14 80° 284° (WNW) 09:26:28 437.475
Oscar 11 06 May 09:20:04 09:22:59 17° 93° (E) 09:25:52 145.826/435.025
RS-15 06 May 09:24:15 09:30:34 16° 265° (W) 09:36:54 29.354- 29.394
AUBIESAT-1 06 May 09:27:33 09:30:16 19° 299° (WNW) 09:32:51 437.475
ISS 06 May 09:33:27 09:34:53 12° 359° (N) 09:36:20 145.825
COMPASS 1 06 May 09:34:33 09:38:45 82° 104° (ESE) 09:42:55 437.405
FUNcube-1 06 May 09:36:59 09:40:10 21° 94° (E) 09:43:19 145.935
SEEDS 06 May 09:38:21 09:42:30 64° 285° (WNW) 09:46:40 437.485
DOVE 4 06 May 09:39:10 09:42:39 19° 297° (WNW) 09:46:00 437.250
UNISAT 6 06 May 09:49:01 09:53:04 31° 70° (ENE) 09:57:04 437.425
PRISM 06 May 09:51:52 09:52:35 10° 270° (W) 09:53:17 437.425
CINEMA 3 06 May 09:53:46 09:57:52 33° 291° (WNW) 10:01:47 145.822/145.860
UWE-3 06 May 09:58:49 10:03:00 61° 101° (E) 10:07:05 435.000/436.395/437.385
HO-68 06 May 10:00:02 10:06:58 55° 292° (WNW) 10:13:52 435.675
AAUSAT CUBESAT 2 06 May 10:01:38 10:05:44 60° 285° (WNW) 10:09:50 437.432
TIGRISAT 06 May 10:04:49 10:09:11 43° 72° (ENE) 10:13:28 435.000
Cosmos 2499 06 May 10:11:12 10:11:59 10° 58° (ENE) 10:12:47 435.465 / 435.565
CUBEBUG 2 06 May 10:14:35 10:18:48 59° 286° (WNW) 10:22:54 437.445
ZACube-1 06 May 10:20:40 10:24:51 73° 102° (ESE) 10:28:58 437.345
NANOSAT C BR1 06 May 10:21:55 10:23:47 13° 63° (ENE) 10:25:40 145.865
CANX-2 06 May 10:23:14 10:25:33 15° 295° (WNW) 10:27:53 2200.000
ANTELSAT 06 May 10:30:27 10:35:05 85° 77° (ENE) 10:39:39 437.575/2403.000
DELFI C3 06 May 10:43:20 10:47:20 76° 101° (ESE) 10:51:21 145.870
GONETS M04 06 May 10:46:24 10:54:25 38° 72° (ENE) 11:02:19
PHONESAT 2.4 06 May 10:50:13 10:53:23 88° 178° (S) 10:56:32 2401.200-2431.200
HUMSAT D 06 May 10:50:19 10:54:07 36° 98° (E) 10:57:54 437.325/437.525
Oscar 11 06 May 10:55:15 10:59:16 39° 288° (WNW) 11:03:16 145.826/435.025
ISS 06 May 11:09:51 11:12:19 19° 19° (NNE) 11:14:47 145.825
DUCHIFAT 1 06 May 11:09:59 11:13:57 39° 71° (ENE) 11:17:55 145.980
AO-85 06 May 11:11:33 11:16:05 27° 111° (ESE) 11:20:36 145.980
FUNcube-1 06 May 11:12:49 11:16:28 30° 290° (WNW) 11:20:03 145.935
QB50P2 06 May 11:15:41 11:19:51 53° 73° (ENE) 11:24:02 145.880/145.840
POLYITAN 1 06 May 11:17:53 11:22:04 54° 73° (ENE) 11:26:16 437.675
AIST 1 06 May 11:18:24 11:22:49 67° 81° (E) 11:27:10
POPSAT HIP 1 06 May 11:19:24 11:23:35 54° 74° (ENE) 11:27:47 437.405
QB50P1 06 May 11:22:12 11:26:25 60° 74° (ENE) 11:30:38 145.935-145.965
AISAT 06 May 11:25:49 11:27:53 13° 91° (E) 11:29:57 437.250
UNISAT 6 06 May 11:25:56 11:29:45 25° 265° (W) 11:33:33 437.425
